Home > Weather > Jennersdorf > Past weeks

Flag for Austria Past Weather in Jennersdorf, Burgenland, Austria — Yesterday and Last 2 Weeks

Now
60 °F

Sunny.


Feels Like: N/A
Forecast: 54 / 84 °F
Wind: N/A

Location: Graz-Thalerhof-Flughafen

Current Time: Aug 27, 2016 at 8:42:06 AM

Latest Report: Aug 27, 2016 at 8:00 AM


Visibility: 9 mi

Pressure: 30.20 "Hg

Humidity: 91%

Dew Point: 57 °F

Location of JennersdorfLocation

Past Weather in Jennersdorf — Graph

°F

Jennersdorf Temperature Yesterday

Maximum temperature yesterday: 78 °F (at 5:00 PM)
Minimum temperature yesterday: 56 °F (at 6:00 AM)
Average temperature yesterday: 67 °F

High & Low Weather Summary for the Past Weeks

 TemperatureHumidityPressure
High80 °F (Aug 14, 4:00 PM)100% (Aug 16, 4:00 AM)30.35 "Hg (Aug 16, 4:00 AM)
Low44 °F (Aug 12, 7:00 AM)37% (Aug 23, 2:00 PM)29.82 "Hg (Aug 18, 5:00 PM)
Average66 °F77%30.11 "Hg
* Reported Aug 12 7:00 AM — Aug 27 7:00 AM, Jennersdorf, Weather by CustomWeather, © 2016

Note: Actual official high and low records may vary slightly from our data, if they occured in-between our weather recording intervals... More about our weather records

Advertising

Jennersdorf Weather History for the Previous 24 Hours

Scroll right to see more
 ConditionsComfort  
Time TempWeatherWind HumidityBarometerVisibility
7:00 AM
Sat, Aug 27
55 °FSunny.N/A97%30.21 "Hg4 mi
5:00 AM56 °FCool.N/A97%30.21 "Hg4 mi
4:00 AM56 °FCool.N/A97%30.20 "Hg4 mi
3:00 AM57 °FCool.N/A95%30.20 "Hg9 mi
2:00 AM58 °FCool.N/A95%30.19 "Hg3 mi
1:00 AM60 °FCool.No wind93%30.19 "Hg11 mi
10:00 PM
Fri, Aug 26
65 °FClear.N/A84%30.18 "Hg19 mi
9:00 PM67 °FClear.N/A74%30.17 "Hg28 mi
8:00 PM70 °FClear.N/A64%30.14 "Hg31 mi
7:00 PM75 °FSunny.N/A57%30.12 "Hg25 mi
6:00 PM78 °FPassing clouds.N/A48%30.12 "Hg25 mi
5:00 PM78 °FPassing clouds.3 mph46%30.12 "Hg25 mi
4:00 PM78 °FPassing clouds.3 mph45%30.13 "Hg22 mi
3:00 PM78 °FPassing clouds.N/A47%30.13 "Hg25 mi
2:00 PM77 °FPassing clouds.N/A44%30.14 "Hg13 mi
1:00 PM76 °FPassing clouds.N/A47%30.15 "Hg4 mi
12:00 PM74 °FPassing clouds.N/A51%30.16 "Hg22 mi
11:00 AM72 °FPassing clouds.N/A61%30.18 "Hg17 mi
10:00 AM69 °FPassing clouds.N/A72%30.18 "Hg12 mi
9:00 AM65 °FPassing clouds.N/A80%30.19 "Hg10 mi
8:00 AM61 °FSunny.N/A91%30.19 "Hg8 mi
Weather by CustomWeather, © 2016

See weather overviewHow to use our weather pages